User: anonymous   Login
Location: Unspecified
(0.0000°N, 0.0000°E)
Time: 18:20:01
(UTC+00:00)
Language:

Cosmos 1674 - Orbit

View from above orbital plane
View from above orbital plane
View from above satellite
View from above satellite

Ground track
Ground track

The orbit data is extracted from the following two-line orbital elements,

1 15944U 85069A   19114.48688311  .00000659  00000-0  29559-4 0  9990
2 15944  82.5057 278.8385 0015677 300.3083  59.6600 15.19349897840606
Epoch (UTC): 24 April 2019 11:41:06
Eccentricity: 0.0015677
inclination: 82.5057°
perigee height: 497 km
apogee height: 518 km
right ascension of ascending node: 278.8385°
argument of perigee: 300.3083°
revolutions per day: 15.19349897
mean anomaly at epoch: 59.6600°
orbit number at epoch: 84060

The dashed part of the orbit path shows where the satellite is in the earth's shadow,  

DLR